#timestamp,LO_Frequency,Hit,StdDev 
1602426095.2,286047014.5,P
1602426115.9,286047016.4,P
1602426135.7,286047017.1,P
1602426155.6,286047015.9,Y
1602426175.4,286046999.7,P
1602426195.2,286047002.1,N
1602426215.1,286047003.6,N
1602426216.0,286047003.6,N
1602426235.8,286047004.3,N
1602426255.7,286047005.1,N
1602426275.5,286047003.4,N
1602426295.3,286047003.9,N
1602426315.2,286047002.9,N
1602426335.0,286047002.9,N
1602426335.9,286047002.9,N
1602426355.8,286047005.4,N
1602426375.6,286047004.8,N
1602426395.4,286047005.8,N
1602426415.3,286047004.6,N
1602426435.1,286047009.1,N
1602426455.9,286047008.8,N
1602426475.7,286047006.6,N
1602426495.5,286047004.5,N
1602426515.4,286047003.2,N
1602426535.2,286047005.5,N
1602426555.0,286047005.3,N
1602426556.0,286047005.3,N
1602426575.8,286047006.7,N
1602426595.6,286047004.9,N
1602426615.5,286047007.1,N
1602426635.3,286047004.6,N
1602426655.1,286047007.4,N
1602426675.9,286047007.2,N
1602426695.7,286047004.9,N
1602426715.6,286047004.5,N
1602426735.4,286047007.0,Y
1602426755.2,286046999.9,P
1602426775.1,286047002.6,N
1602426776.0,286047002.6,N
1602426795.8,286047000.9,N
1602426815.7,286047000.3,N
1602426835.5,286047001.3,N
1602426855.3,286047001.3,N
1602426875.2,286047002.0,N
1602426895.0,286047004.1,N
1602426895.9,286047004.1,N
1602426915.7,286047005.9,Y
1602426935.6,286047003.6,P
1602426955.4,286047003.4,P
1602426975.3,286047003.3,P
1602426995.1,286047003.9,Y
1602426996.0,286047003.9,P
1602427015.8,286046999.9,N
1602427035.7,286047002.8,N
1602427055.5,286047002.6,N
1602427075.4,286047001.6,N
1602427095.2,286047004.0,Y
1602427115.0,286047003.9,P
1602427115.9,286047003.9,P
1602427135.8,286047004.0,P
1602427155.6,286047002.6,Y
1602427175.4,286046999.4,P
1602427195.3,286046998.1,N
1602427215.1,286047001.0,N
1602427235.9,286047001.8,N
1602427255.7,286047001.7,N
1602427275.5,286047001.8,N
1602427295.4,286047001.7,N
1602427315.2,286047003.9,N
1602427335.0,286047003.2,N
1602427335.9,286047003.2,N
1602427355.8,286047004.1,N
1602427375.6,286047006.0,Y
1602427395.5,286047001.3,P
1602427415.3,286047004.0,P
1602427435.1,286047005.5,P
1602427455.9,286047002.9,N
1602427475.7,286047004.9,Y
1602427495.6,286047001.4,P
1602427515.4,286047004.3,P
1602427535.2,286047004.4,P
1602427555.1,286047005.9,Y
1602427556.0,286047005.9,P
1602427575.8,286047004.3,P
1602427595.6,286047003.8,P
1602427615.5,286047003.7,Y
1602427635.3,286046998.1,P
1602427655.2,286046998.6,N
1602427675.9,286047000.2,N
1602427695.7,286046998.4,N
1602427715.6,286046999.2,N
1602427735.4,286046998.1,N
1602427785.3,286046999.0,E
1602427795.2,286046998.1,N
1602427815.0,286047001.1,P
1602427815.9,286047001.1,N
1602427835.8,286047001.0,N
1602427855.6,286047001.1,N
1602427875.5,286047001.2,N
1602427895.3,286047001.0,N
1602427915.1,286046998.4,N
1602427935.9,286047000.5,N
1602427955.7,286046998.1,N
1602427975.5,286046999.9,N
1602427995.4,286047002.7,N
1602428015.2,286047002.7,N
1602428035.1,286047001.8,N
1602428036.0,286047001.8,N
1602428055.8,286047004.3,N
1602428075.6,286047003.4,N
1602428095.5,286047003.0,N
1602428115.3,286047004.0,N
1602428135.1,286047004.2,N
1602428155.9,286047004.2,N
1602428175.7,286047001.6,N
1602428195.6,286047003.8,N
1602428215.4,286047005.7,Y
1602428235.2,286047005.6,P
1602428255.1,286047004.0,N
1602428256.0,286047004.0,N
1602428275.8,286047004.1,N
1602428325.7,286047005.9,E
1602428335.6,286047004.0,N
1602428355.4,286046999.5,P
1602428375.3,286047000.5,N
1602428395.1,286047002.8,N
